Time,TemperatureF,DewpointF,PressureIn,WindDirection,WindDirectionDegrees,WindSpeedMPH,WindSpeedGustMPH,Humidity,HourlyPrecipIn,Conditions,Clouds,dailyrainin,SoftwareType,DateUTC
2013-11-01 00:00:00,62.8,60.8,29.60,North,-999,-999.0,-999.0,92,0.00,,,0.00,tws,2013-11-01 04:00:00,
2013-11-01 00:05:00,62.8,60.8,29.62,North,-999,-999.0,-999.0,93,0.00,,,0.00,tws,2013-11-01 04:05:00,
2013-11-01 00:10:00,62.8,60.6,29.63,North,-999,-999.0,-999.0,92,0.00,,,0.00,tws,2013-11-01 04:10:00,
2013-11-01 00:15:00,62.9,60.6,29.61,North,-999,-999.0,-999.0,92,0.00,,,0.00,tws,2013-11-01 04:15:00,
2013-11-01 00:20:00,63.0,60.0,29.59,North,-999,-999.0,-999.0,89,0.00,,,0.00,tws,2013-11-01 04:20:00,
2013-11-01 00:25:00,63.2,59.7,29.57,North,-999,-999.0,-999.0,88,0.00,,,0.00,tws,2013-11-01 04:25:00,
2013-11-01 00:30:00,63.1,59.7,29.58,North,-999,-999.0,-999.0,88,0.00,,,0.00,tws,2013-11-01 04:30:00,
2013-11-01 00:35:00,63.1,59.6,29.59,North,-999,-999.0,-999.0,88,0.00,,,0.00,tws,2013-11-01 04:35:00,
2013-11-01 00:40:00,63.2,59.4,29.58,North,-999,-999.0,-999.0,87,0.00,,,0.00,tws,2013-11-01 04:40:00,
2013-11-01 00:45:00,63.2,59.1,29.57,North,-999,-999.0,-999.0,86,0.00,,,0.00,tws,2013-11-01 04:45:00,
2013-11-01 00:50:00,63.3,59.1,29.58,North,-999,-999.0,-999.0,86,0.00,,,0.00,tws,2013-11-01 04:50:00,
2013-11-01 00:55:00,63.3,59.1,29.59,North,-999,-999.0,-999.0,86,0.00,,,0.00,tws,2013-11-01 04:55:00,
2013-11-01 01:00:00,63.3,59.0,29.58,North,-999,-999.0,-999.0,85,0.00,,,0.00,tws,2013-11-01 05:00:00,
2013-11-01 01:05:00,63.4,59.1,29.59,North,-999,-999.0,-999.0,85,0.00,,,0.00,tws,2013-11-01 05:05:00,
2013-11-01 01:10:00,63.3,59.0,29.59,North,-999,-999.0,-999.0,85,0.00,,,0.00,tws,2013-11-01 05:10:00,
2013-11-01 01:15:00,63.3,58.9,29.59,North,-999,-999.0,-999.0,85,0.00,,,0.00,tws,2013-11-01 05:15:00,
2013-11-01 01:20:00,63.3,58.8,29.58,North,-999,-999.0,-999.0,85,0.00,,,0.00,tws,2013-11-01 05:20:00,
2013-11-01 01:25:00,63.5,59.0,29.58,North,-999,-999.0,-999.0,85,0.00,,,0.00,tws,2013-11-01 05:25:00,
2013-11-01 01:30:00,63.5,59.0,29.57,North,-999,-999.0,-999.0,85,0.00,,,0.00,tws,2013-11-01 05:30:00,
2013-11-01 01:35:00,63.6,59.1,29.57,North,-999,-999.0,-999.0,85,0.00,,,0.00,tws,2013-11-01 05:35:00,
2013-11-01 01:45:00,63.4,59.2,29.57,North,-999,-999.0,-999.0,85,0.00,,,0.00,tws,2013-11-01 05:45:00,
2013-11-01 01:50:00,63.4,59.3,29.57,North,-999,-999.0,-999.0,86,0.00,,,0.00,tws,2013-11-01 05:50:00,
2013-11-01 01:55:00,63.6,59.2,29.57,North,-999,-999.0,-999.0,85,0.00,,,0.00,tws,2013-11-01 05:55:00,
2013-11-01 02:00:00,63.6,59.3,29.57,North,-999,-999.0,-999.0,85,0.00,,,0.00,tws,2013-11-01 06:00:00,
2013-11-01 02:05:00,63.6,59.4,29.57,North,-999,-999.0,-999.0,85,0.00,,,0.00,tws,2013-11-01 06:05:00,
2013-11-01 02:10:00,63.5,59.4,29.57,North,-999,-999.0,-999.0,86,0.00,,,0.00,tws,2013-11-01 06:10:00,
2013-11-01 02:15:00,63.5,59.3,29.57,North,-999,-999.0,-999.0,86,0.00,,,0.00,tws,2013-11-01 06:15:00,
2013-11-01 02:20:00,63.7,59.3,29.56,North,-999,-999.0,-999.0,85,0.00,,,0.00,tws,2013-11-01 06:20:00,
2013-11-01 02:25:00,63.6,59.2,29.56,North,-999,-999.0,-999.0,85,0.00,,,0.00,tws,2013-11-01 06:25:00,
2013-11-01 02:30:00,63.5,59.4,29.56,North,-999,-999.0,-999.0,86,0.00,,,0.00,tws,2013-11-01 06:30:00,
2013-11-01 02:35:00,63.4,59.6,29.56,North,-999,-999.0,-999.0,87,0.00,,,0.00,tws,2013-11-01 06:35:00,
2013-11-01 02:40:00,63.2,59.6,29.57,North,-999,-999.0,-999.0,87,0.00,,,0.00,tws,2013-11-01 06:40:00,
2013-11-01 02:45:00,63.1,59.3,29.56,North,-999,-999.0,-999.0,87,0.00,,,0.00,tws,2013-11-01 06:45:00,
2013-11-01 02:50:00,63.0,58.4,29.55,North,-999,-999.0,-999.0,84,0.00,,,0.00,tws,2013-11-01 06:50:00,
2013-11-01 02:55:00,63.4,58.0,29.55,North,-999,-999.0,-999.0,82,0.00,,,0.00,tws,2013-11-01 06:55:00,
2013-11-01 03:00:00,63.5,58.1,29.55,North,-999,-999.0,-999.0,82,0.00,,,0.00,tws,2013-11-01 07:00:00,
2013-11-01 03:05:00,63.5,57.7,29.55,North,-999,-999.0,-999.0,81,0.00,,,0.00,tws,2013-11-01 07:05:00,
2013-11-01 03:10:00,63.6,57.6,29.55,North,-999,-999.0,-999.0,80,0.00,,,0.00,tws,2013-11-01 07:10:00,
2013-11-01 03:15:00,63.6,57.5,29.55,North,-999,-999.0,-999.0,80,0.00,,,0.00,tws,2013-11-01 07:15:00,
2013-11-01 03:20:00,63.6,57.2,29.54,North,-999,-999.0,-999.0,79,0.00,,,0.00,tws,2013-11-01 07:20:00,
2013-11-01 03:25:00,63.6,57.1,29.55,North,-999,-999.0,-999.0,79,0.00,,,0.00,tws,2013-11-01 07:25:00,
2013-11-01 03:30:00,63.6,56.8,29.55,North,-999,-999.0,-999.0,78,0.00,,,0.00,tws,2013-11-01 07:30:00,
2013-11-01 03:35:00,63.6,56.8,29.55,North,-999,-999.0,-999.0,78,0.00,,,0.00,tws,2013-11-01 07:35:00,
2013-11-01 03:40:00,63.6,56.8,29.54,North,-999,-999.0,-999.0,78,0.00,,,0.00,tws,2013-11-01 07:40:00,
2013-11-01 03:45:00,63.4,56.8,29.54,North,-999,-999.0,-999.0,78,0.00,,,0.00,tws,2013-11-01 07:45:00,
2013-11-01 03:50:00,63.4,56.5,29.53,North,-999,-999.0,-999.0,77,0.00,,,0.00,tws,2013-11-01 07:50:00,
2013-11-01 03:55:00,63.5,56.7,29.54,North,-999,-999.0,-999.0,78,0.00,,,0.00,tws,2013-11-01 07:55:00,
2013-11-01 04:00:00,63.5,56.8,29.54,North,-999,-999.0,-999.0,78,0.00,,,0.00,tws,2013-11-01 08:00:00,
2013-11-01 04:05:00,63.4,56.9,29.54,North,-999,-999.0,-999.0,79,0.00,,,0.00,tws,2013-11-01 08:05:00,
2013-11-01 04:10:00,63.4,56.9,29.54,North,-999,-999.0,-999.0,79,0.00,,,0.00,tws,2013-11-01 08:10:00,
2013-11-01 04:15:00,63.3,57.1,29.53,North,-999,-999.0,-999.0,79,0.00,,,0.00,tws,2013-11-01 08:15:00,
2013-11-01 04:20:00,63.3,57.4,29.53,North,-999,-999.0,-999.0,80,0.00,,,0.00,tws,2013-11-01 08:20:00,
2013-11-01 04:25:00,63.3,57.5,29.53,North,-999,-999.0,-999.0,81,0.00,,,0.00,tws,2013-11-01 08:25:00,
2013-11-01 04:30:00,63.2,57.6,29.53,North,-999,-999.0,-999.0,81,0.00,,,0.00,tws,2013-11-01 08:30:00,
2013-11-01 04:35:00,63.0,57.9,29.52,North,-999,-999.0,-999.0,83,0.00,,,0.00,tws,2013-11-01 08:35:00,
2013-11-01 04:40:00,62.8,58.0,29.52,North,-999,-999.0,-999.0,84,0.00,,,0.00,tws,2013-11-01 08:40:00,
2013-11-01 04:45:00,62.8,58.2,29.52,North,-999,-999.0,-999.0,84,0.00,,,0.00,tws,2013-11-01 08:45:00,
2013-11-01 04:50:00,62.7,58.3,29.52,North,-999,-999.0,-999.0,85,0.00,,,0.00,tws,2013-11-01 08:50:00,
2013-11-01 04:55:00,62.7,58.3,29.52,North,-999,-999.0,-999.0,85,0.00,,,0.00,tws,2013-11-01 08:55:00,
2013-11-01 05:00:00,62.7,58.6,29.52,North,-999,-999.0,-999.0,86,0.00,,,0.00,tws,2013-11-01 09:00:00,
2013-11-01 05:05:00,62.8,58.8,29.52,North,-999,-999.0,-999.0,86,0.00,,,0.00,tws,2013-11-01 09:05:00,
2013-11-01 05:10:00,62.9,59.0,29.52,North,-999,-999.0,-999.0,86,0.00,,,0.00,tws,2013-11-01 09:10:00,
2013-11-01 05:15:00,63.0,59.1,29.52,North,-999,-999.0,-999.0,86,0.00,,,0.00,tws,2013-11-01 09:15:00,
2013-11-01 05:20:00,63.1,59.3,29.51,North,-999,-999.0,-999.0,87,0.00,,,0.00,tws,2013-11-01 09:20:00,
2013-11-01 05:25:00,63.2,59.3,29.51,North,-999,-999.0,-999.0,86,0.00,,,0.00,tws,2013-11-01 09:25:00,
2013-11-01 05:30:00,63.3,59.5,29.51,North,-999,-999.0,-999.0,87,0.00,,,0.00,tws,2013-11-01 09:30:00,
2013-11-01 05:35:00,63.3,59.5,29.51,North,-999,-999.0,-999.0,87,0.00,,,0.00,tws,2013-11-01 09:35:00,
2013-11-01 05:40:00,63.4,59.5,29.51,North,-999,-999.0,-999.0,86,0.00,,,0.00,tws,2013-11-01 09:40:00,
2013-11-01 05:45:00,63.6,59.3,29.52,North,-999,-999.0,-999.0,85,0.00,,,0.00,tws,2013-11-01 09:45:00,
2013-11-01 05:50:00,63.7,58.9,29.51,North,-999,-999.0,-999.0,84,0.00,,,0.00,tws,2013-11-01 09:50:00,
2013-11-01 05:55:00,63.7,58.9,29.51,North,-999,-999.0,-999.0,84,0.00,,,0.00,tws,2013-11-01 09:55:00,
2013-11-01 06:00:00,63.8,58.9,29.51,North,-999,-999.0,-999.0,83,0.00,,,0.00,tws,2013-11-01 10:00:00,
2013-11-01 06:05:00,63.9,59.0,29.51,North,-999,-999.0,-999.0,83,0.00,,,0.00,tws,2013-11-01 10:05:00,
2013-11-01 06:10:00,64.0,59.2,29.51,North,-999,-999.0,-999.0,84,0.00,,,0.00,tws,2013-11-01 10:10:00,
2013-11-01 06:15:00,64.1,59.3,29.51,North,-999,-999.0,-999.0,84,0.00,,,0.00,tws,2013-11-01 10:15:00,
2013-11-01 06:20:00,63.9,59.6,29.51,North,-999,-999.0,-999.0,85,0.00,,,0.00,tws,2013-11-01 10:20:00,
2013-11-01 06:25:00,63.7,59.6,29.51,North,-999,-999.0,-999.0,86,0.00,,,0.00,tws,2013-11-01 10:25:00,
2013-11-01 06:30:00,63.6,59.7,29.51,North,-999,-999.0,-999.0,86,0.00,,,0.00,tws,2013-11-01 10:30:00,
2013-11-01 06:35:00,63.5,59.7,29.51,North,-999,-999.0,-999.0,87,0.00,,,0.00,tws,2013-11-01 10:35:00,
2013-11-01 06:40:00,63.5,59.7,29.51,North,-999,-999.0,-999.0,87,0.00,,,0.00,tws,2013-11-01 10:40:00,
2013-11-01 06:45:00,63.4,59.7,29.50,North,-999,-999.0,-999.0,87,0.00,,,0.00,tws,2013-11-01 10:45:00,
2013-11-01 06:50:00,63.4,59.7,29.50,North,-999,-999.0,-999.0,87,0.00,,,0.00,tws,2013-11-01 10:50:00,
2013-11-01 06:55:00,63.5,59.9,29.50,North,-999,-999.0,-999.0,87,0.00,,,0.00,tws,2013-11-01 10:55:00,
2013-11-01 07:00:00,63.6,60.0,29.51,North,-999,-999.0,-999.0,87,0.00,,,0.00,tws,2013-11-01 11:00:00,
2013-11-01 07:05:00,63.6,59.9,29.51,North,-999,-999.0,-999.0,87,0.00,,,0.00,tws,2013-11-01 11:05:00,
2013-11-01 07:10:00,63.7,60.0,29.51,North,-999,-999.0,-999.0,87,0.00,,,0.00,tws,2013-11-01 11:10:00,
2013-11-01 07:15:00,63.7,59.9,29.51,North,-999,-999.0,-999.0,87,0.00,,,0.00,tws,2013-11-01 11:15:00,
2013-11-01 07:20:00,63.8,60.0,29.52,North,-999,-999.0,-999.0,87,0.00,,,0.00,tws,2013-11-01 11:20:00,
2013-11-01 07:25:00,63.7,60.2,29.52,North,-999,-999.0,-999.0,88,0.00,,,0.00,tws,2013-11-01 11:25:00,
2013-11-01 07:30:00,63.6,60.4,29.52,North,-999,-999.0,-999.0,89,0.00,,,0.00,tws,2013-11-01 11:30:00,
2013-11-01 07:35:00,63.4,60.5,29.52,North,-999,-999.0,-999.0,90,0.00,,,0.00,tws,2013-11-01 11:35:00,
2013-11-01 07:40:00,63.1,60.7,29.53,North,-999,-999.0,-999.0,91,0.00,,,0.00,tws,2013-11-01 11:40:00,
2013-11-01 07:45:00,62.8,60.8,29.53,North,-999,-999.0,-999.0,92,0.00,,,0.00,tws,2013-11-01 11:45:00,
2013-11-01 07:50:00,62.7,60.8,29.52,North,-999,-999.0,-999.0,93,0.00,,,0.00,tws,2013-11-01 11:50:00,
2013-11-01 07:55:00,62.4,60.9,29.52,North,-999,-999.0,-999.0,94,0.00,,,0.00,tws,2013-11-01 11:55:00,
2013-11-01 08:00:00,62.2,60.9,29.51,North,-999,-999.0,-999.0,95,0.00,,,0.00,tws,2013-11-01 12:00:00,
2013-11-01 08:05:00,62.2,60.9,29.52,North,-999,-999.0,-999.0,95,0.00,,,0.00,tws,2013-11-01 12:05:00,
2013-11-01 08:10:00,62.0,60.8,29.52,North,-999,-999.0,-999.0,95,0.00,,,0.00,tws,2013-11-01 12:10:00,
2013-11-01 08:15:00,62.0,60.9,29.52,North,-999,-999.0,-999.0,96,0.00,,,0.00,tws,2013-11-01 12:15:00,
2013-11-01 08:20:00,62.0,60.9,29.53,North,-999,-999.0,-999.0,96,0.00,,,0.00,tws,2013-11-01 12:20:00,
2013-11-01 08:25:00,61.9,60.7,29.54,North,-999,-999.0,-999.0,95,0.00,,,0.00,tws,2013-11-01 12:25:00,
2013-11-01 08:30:00,61.9,60.3,29.54,North,-999,-999.0,-999.0,94,0.00,,,0.00,tws,2013-11-01 12:30:00,
2013-11-01 08:35:00,61.8,59.7,29.54,North,-999,-999.0,-999.0,92,0.00,,,0.00,tws,2013-11-01 12:35:00,
2013-11-01 08:40:00,61.7,59.2,29.55,North,-999,-999.0,-999.0,91,0.00,,,0.00,tws,2013-11-01 12:40:00,
2013-11-01 08:45:00,61.5,59.0,29.55,North,-999,-999.0,-999.0,91,0.00,,,0.00,tws,2013-11-01 12:45:00,
2013-11-01 08:50:00,61.2,58.8,29.56,North,-999,-999.0,-999.0,92,0.00,,,0.00,tws,2013-11-01 12:50:00,
2013-11-01 08:55:00,60.9,58.8,29.56,North,-999,-999.0,-999.0,92,0.00,,,0.00,tws,2013-11-01 12:55:00,
2013-11-01 09:00:00,60.7,58.8,29.56,North,-999,-999.0,-999.0,93,0.00,,,0.00,tws,2013-11-01 13:00:00,
2013-11-01 09:05:00,60.5,58.7,29.56,North,-999,-999.0,-999.0,93,0.00,,,0.00,tws,2013-11-01 13:05:00,
2013-11-01 09:10:00,60.4,58.7,29.57,North,-999,-999.0,-999.0,94,0.00,,,0.00,tws,2013-11-01 13:10:00,
2013-11-01 09:15:00,60.3,59.0,29.57,North,-999,-999.0,-999.0,95,0.00,,,0.00,tws,2013-11-01 13:15:00,
2013-11-01 09:20:00,60.1,59.2,29.57,North,-999,-999.0,-999.0,96,0.00,,,0.00,tws,2013-11-01 13:20:00,
2013-11-01 09:25:00,60.1,59.3,29.57,North,-999,-999.0,-999.0,97,0.00,,,0.00,tws,2013-11-01 13:25:00,
2013-11-01 09:30:00,60.0,59.3,29.57,North,-999,-999.0,-999.0,97,0.00,,,0.00,tws,2013-11-01 13:30:00,
2013-11-01 09:35:00,59.9,59.4,29.57,North,-999,-999.0,-999.0,98,0.00,,,0.00,tws,2013-11-01 13:35:00,
2013-11-01 09:40:00,59.9,59.4,29.57,North,-999,-999.0,-999.0,98,0.00,,,0.00,tws,2013-11-01 13:40:00,
2013-11-01 09:45:00,59.9,59.5,29.57,North,-999,-999.0,-999.0,98,0.00,,,0.00,tws,2013-11-01 13:45:00,
2013-11-01 09:50:00,59.8,59.5,29.57,North,-999,-999.0,-999.0,98,0.00,,,0.00,tws,2013-11-01 13:50:00,
2013-11-01 09:55:00,59.7,59.2,29.57,North,-999,-999.0,-999.0,98,0.00,,,0.00,tws,2013-11-01 13:55:00,
2013-11-01 10:00:00,59.5,58.9,29.56,North,-999,-999.0,-999.0,98,0.00,,,0.00,tws,2013-11-01 14:00:00,
2013-11-01 10:05:00,59.5,58.8,29.56,North,-999,-999.0,-999.0,97,0.00,,,0.00,tws,2013-11-01 14:05:00,
2013-11-01 10:10:00,59.6,58.9,29.56,North,-999,-999.0,-999.0,97,0.00,,,0.00,tws,2013-11-01 14:10:00,
2013-11-01 10:15:00,59.9,59.1,29.56,North,-999,-999.0,-999.0,97,0.00,,,0.00,tws,2013-11-01 14:15:00,
2013-11-01 10:20:00,60.2,59.2,29.56,North,-999,-999.0,-999.0,96,0.00,,,0.00,tws,2013-11-01 14:20:00,
2013-11-01 10:25:00,60.7,59.9,29.56,North,-999,-999.0,-999.0,97,0.00,,,0.00,tws,2013-11-01 14:25:00,
2013-11-01 10:30:00,61.3,60.3,29.56,North,-999,-999.0,-999.0,96,0.00,,,0.00,tws,2013-11-01 14:30:00,
2013-11-01 10:35:00,61.5,59.8,29.56,North,-999,-999.0,-999.0,94,0.00,,,0.00,tws,2013-11-01 14:35:00,
2013-11-01 10:40:00,61.9,60.1,29.55,North,-999,-999.0,-999.0,93,0.00,,,0.00,tws,2013-11-01 14:40:00,
2013-11-01 10:45:00,62.7,60.7,29.54,North,-999,-999.0,-999.0,93,0.00,,,0.00,tws,2013-11-01 14:45:00,
2013-11-01 10:50:00,63.4,60.7,29.54,North,-999,-999.0,-999.0,90,0.00,,,0.00,tws,2013-11-01 14:50:00,
2013-11-01 10:55:00,64.0,60.6,29.54,North,-999,-999.0,-999.0,88,0.00,,,0.00,tws,2013-11-01 14:55:00,
2013-11-01 11:00:00,64.5,59.9,29.54,North,-999,-999.0,-999.0,84,0.00,,,0.00,tws,2013-11-01 15:00:00,
2013-11-01 11:05:00,65.2,59.4,29.53,North,-999,-999.0,-999.0,81,0.00,,,0.00,tws,2013-11-01 15:05:00,
2013-11-01 11:10:00,65.8,58.7,29.53,North,-999,-999.0,-999.0,77,0.00,,,0.00,tws,2013-11-01 15:10:00,
2013-11-01 11:15:00,66.3,58.1,29.53,North,-999,-999.0,-999.0,74,0.00,,,0.00,tws,2013-11-01 15:15:00,
2013-11-01 11:20:00,66.7,58.0,29.54,North,-999,-999.0,-999.0,73,0.00,,,0.00,tws,2013-11-01 15:20:00,
2013-11-01 11:25:00,67.3,57.2,29.53,North,-999,-999.0,-999.0,69,0.00,,,0.00,tws,2013-11-01 15:25:00,
2013-11-01 11:30:00,67.9,57.4,29.53,North,-999,-999.0,-999.0,68,0.00,,,0.00,tws,2013-11-01 15:30:00,
2013-11-01 11:35:00,68.4,57.4,29.53,North,-999,-999.0,-999.0,67,0.00,,,0.00,tws,2013-11-01 15:35:00,
2013-11-01 11:40:00,68.9,57.4,29.53,North,-999,-999.0,-999.0,66,0.00,,,0.00,tws,2013-11-01 15:40:00,
2013-11-01 11:45:00,69.7,57.3,29.54,North,-999,-999.0,-999.0,64,0.00,,,0.00,tws,2013-11-01 15:45:00,
2013-11-01 11:50:00,70.1,55.4,29.54,North,-999,-999.0,-999.0,59,0.00,,,0.00,tws,2013-11-01 15:50:00,
2013-11-01 11:55:00,70.4,55.1,29.53,North,-999,-999.0,-999.0,58,0.00,,,0.00,tws,2013-11-01 15:55:00,
2013-11-01 12:00:00,70.9,55.3,29.53,North,-999,-999.0,-999.0,57,0.00,,,0.00,tws,2013-11-01 16:00:00,
2013-11-01 12:05:00,71.2,53.8,29.53,North,-999,-999.0,-999.0,53,0.00,,,0.00,tws,2013-11-01 16:05:00,
2013-11-01 12:10:00,71.2,51.6,29.53,North,-999,-999.0,-999.0,49,0.00,,,0.00,tws,2013-11-01 16:10:00,
2013-11-01 12:15:00,71.4,52.6,29.52,North,-999,-999.0,-999.0,50,0.00,,,0.00,tws,2013-11-01 16:15:00,
2013-11-01 12:20:00,71.6,51.9,29.52,North,-999,-999.0,-999.0,49,0.00,,,0.00,tws,2013-11-01 16:20:00,
2013-11-01 12:25:00,72.0,51.9,29.52,North,-999,-999.0,-999.0,48,0.00,,,0.00,tws,2013-11-01 16:25:00,
2013-11-01 12:30:00,71.8,50.0,29.51,North,-999,-999.0,-999.0,45,0.00,,,0.00,tws,2013-11-01 16:30:00,
2013-11-01 12:35:00,71.7,49.9,29.51,North,-999,-999.0,-999.0,45,0.00,,,0.00,tws,2013-11-01 16:35:00,
2013-11-01 12:40:00,71.7,49.9,29.51,North,-999,-999.0,-999.0,45,0.00,,,0.00,tws,2013-11-01 16:40:00,
2013-11-01 12:45:00,72.1,50.7,29.50,North,-999,-999.0,-999.0,46,0.00,,,0.00,tws,2013-11-01 16:45:00,
2013-11-01 12:50:00,72.4,50.0,29.50,North,-999,-999.0,-999.0,44,0.00,,,0.00,tws,2013-11-01 16:50:00,
2013-11-01 12:55:00,72.1,49.5,29.50,North,-999,-999.0,-999.0,44,0.00,,,0.00,tws,2013-11-01 16:55:00,
2013-11-01 13:00:00,72.4,49.8,29.50,North,-999,-999.0,-999.0,44,0.00,,,0.00,tws,2013-11-01 17:00:00,
2013-11-01 13:05:00,72.8,50.0,29.50,North,-999,-999.0,-999.0,44,0.00,,,0.00,tws,2013-11-01 17:05:00,
2013-11-01 13:10:00,73.4,50.7,29.50,North,-999,-999.0,-999.0,44,0.00,,,0.00,tws,2013-11-01 17:10:00,
2013-11-01 13:15:00,73.6,49.3,29.49,North,-999,-999.0,-999.0,41,0.00,,,0.00,tws,2013-11-01 17:15:00,
2013-11-01 13:20:00,73.6,49.5,29.49,North,-999,-999.0,-999.0,42,0.00,,,0.00,tws,2013-11-01 17:20:00,
2013-11-01 13:25:00,73.8,50.0,29.49,North,-999,-999.0,-999.0,42,0.00,,,0.00,tws,2013-11-01 17:25:00,
2013-11-01 13:30:00,74.0,50.3,29.49,North,-999,-999.0,-999.0,42,0.00,,,0.00,tws,2013-11-01 17:30:00,
2013-11-01 13:35:00,74.3,50.2,29.49,North,-999,-999.0,-999.0,42,0.00,,,0.00,tws,2013-11-01 17:35:00,
2013-11-01 13:40:00,74.4,49.3,29.48,North,-999,-999.0,-999.0,40,0.00,,,0.00,tws,2013-11-01 17:40:00,
2013-11-01 13:45:00,74.3,49.5,29.47,North,-999,-999.0,-999.0,41,0.00,,,0.00,tws,2013-11-01 17:45:00,
2013-11-01 13:50:00,74.5,49.9,29.47,North,-999,-999.0,-999.0,41,0.00,,,0.00,tws,2013-11-01 17:50:00,
2013-11-01 13:55:00,74.2,47.5,29.47,North,-999,-999.0,-999.0,38,0.00,,,0.00,tws,2013-11-01 17:55:00,
2013-11-01 14:00:00,74.2,48.9,29.47,North,-999,-999.0,-999.0,40,0.00,,,0.00,tws,2013-11-01 18:00:00,
2013-11-01 14:05:00,74.5,48.8,29.47,North,-999,-999.0,-999.0,39,0.00,,,0.00,tws,2013-11-01 18:05:00,
2013-11-01 14:10:00,74.8,49.9,29.46,North,-999,-999.0,-999.0,41,0.00,,,0.00,tws,2013-11-01 18:10:00,
2013-11-01 14:15:00,75.1,50.0,29.46,North,-999,-999.0,-999.0,40,0.00,,,0.00,tws,2013-11-01 18:15:00,
2013-11-01 14:20:00,75.0,48.3,29.46,North,-999,-999.0,-999.0,38,0.00,,,0.00,tws,2013-11-01 18:20:00,
2013-11-01 14:25:00,74.6,47.8,29.46,North,-999,-999.0,-999.0,38,0.00,,,0.00,tws,2013-11-01 18:25:00,
2013-11-01 14:30:00,74.5,48.6,29.46,North,-999,-999.0,-999.0,39,0.00,,,0.00,tws,2013-11-01 18:30:00,
2013-11-01 14:35:00,74.9,48.0,29.46,North,-999,-999.0,-999.0,38,0.00,,,0.00,tws,2013-11-01 18:35:00,
2013-11-01 14:40:00,75.1,47.8,29.45,North,-999,-999.0,-999.0,37,0.00,,,0.00,tws,2013-11-01 18:40:00,
2013-11-01 14:45:00,75.3,48.0,29.45,North,-999,-999.0,-999.0,37,0.00,,,0.00,tws,2013-11-01 18:45:00,
2013-11-01 14:50:00,75.6,48.6,29.45,North,-999,-999.0,-999.0,38,0.00,,,0.00,tws,2013-11-01 18:50:00,
2013-11-01 14:55:00,75.7,47.2,29.45,North,-999,-999.0,-999.0,36,0.00,,,0.00,tws,2013-11-01 18:55:00,
2013-11-01 15:00:00,75.4,45.4,29.44,North,-999,-999.0,-999.0,33,0.00,,,0.00,tws,2013-11-01 19:00:00,
2013-11-01 15:05:00,75.2,44.2,29.44,North,-999,-999.0,-999.0,32,0.00,,,0.00,tws,2013-11-01 19:05:00,
2013-11-01 15:10:00,75.2,44.3,29.44,North,-999,-999.0,-999.0,32,0.00,,,0.00,tws,2013-11-01 19:10:00,
2013-11-01 15:15:00,75.4,44.3,29.44,North,-999,-999.0,-999.0,32,0.00,,,0.00,tws,2013-11-01 19:15:00,
2013-11-01 15:20:00,75.7,44.5,29.43,North,-999,-999.0,-999.0,32,0.00,,,0.00,tws,2013-11-01 19:20:00,
2013-11-01 15:25:00,75.6,43.1,29.43,North,-999,-999.0,-999.0,30,0.00,,,0.00,tws,2013-11-01 19:25:00,
2013-11-01 15:30:00,75.7,43.2,29.43,North,-999,-999.0,-999.0,30,0.00,,,0.00,tws,2013-11-01 19:30:00,
2013-11-01 15:35:00,76.0,43.6,29.43,North,-999,-999.0,-999.0,31,0.00,,,0.00,tws,2013-11-01 19:35:00,
2013-11-01 15:40:00,75.9,39.5,29.43,North,-999,-999.0,-999.0,26,0.00,,,0.00,tws,2013-11-01 19:40:00,
2013-11-01 15:45:00,75.9,38.2,29.43,North,-999,-999.0,-999.0,25,0.00,,,0.00,tws,2013-11-01 19:45:00,
2013-11-01 15:50:00,75.8,38.5,29.43,North,-999,-999.0,-999.0,25,0.00,,,0.00,tws,2013-11-01 19:50:00,
2013-11-01 15:55:00,75.6,37.2,29.42,North,-999,-999.0,-999.0,24,0.00,,,0.00,tws,2013-11-01 19:55:00,
2013-11-01 16:00:00,75.7,38.8,29.42,North,-999,-999.0,-999.0,26,0.00,,,0.00,tws,2013-11-01 20:00:00,
2013-11-01 16:05:00,75.6,40.9,29.41,North,-999,-999.0,-999.0,28,0.00,,,0.00,tws,2013-11-01 20:05:00,
2013-11-01 16:10:00,75.6,42.7,29.41,North,-999,-999.0,-999.0,30,0.00,,,0.00,tws,2013-11-01 20:10:00,
2013-11-01 16:15:00,75.4,42.7,29.41,North,-999,-999.0,-999.0,30,0.00,,,0.00,tws,2013-11-01 20:15:00,
2013-11-01 16:20:00,75.1,42.3,29.41,North,-999,-999.0,-999.0,30,0.00,,,0.00,tws,2013-11-01 20:20:00,
2013-11-01 16:25:00,74.8,42.7,29.41,North,-999,-999.0,-999.0,31,0.00,,,0.00,tws,2013-11-01 20:25:00,
2013-11-01 16:30:00,74.7,42.2,29.41,North,-999,-999.0,-999.0,30,0.00,,,0.00,tws,2013-11-01 20:30:00,
2013-11-01 16:35:00,74.3,41.8,29.41,North,-999,-999.0,-999.0,30,0.00,,,0.00,tws,2013-11-01 20:35:00,
2013-11-01 16:40:00,74.2,41.4,29.42,North,-999,-999.0,-999.0,30,0.00,,,0.00,tws,2013-11-01 20:40:00,
2013-11-01 16:45:00,73.9,41.0,29.42,North,-999,-999.0,-999.0,30,0.00,,,0.00,tws,2013-11-01 20:45:00,
2013-11-01 16:50:00,73.8,41.9,29.42,North,-999,-999.0,-999.0,31,0.00,,,0.00,tws,2013-11-01 20:50:00,
2013-11-01 16:55:00,73.5,42.1,29.43,North,-999,-999.0,-999.0,31,0.00,,,0.00,tws,2013-11-01 20:55:00,
2013-11-01 17:00:00,73.3,43.0,29.43,North,-999,-999.0,-999.0,33,0.00,,,0.00,tws,2013-11-01 21:00:00,
2013-11-01 17:05:00,73.0,43.7,29.43,North,-999,-999.0,-999.0,34,0.00,,,0.00,tws,2013-11-01 21:05:00,
2013-11-01 17:10:00,72.7,42.9,29.43,North,-999,-999.0,-999.0,33,0.00,,,0.00,tws,2013-11-01 21:10:00,
2013-11-01 17:15:00,72.5,43.2,29.43,North,-999,-999.0,-999.0,34,0.00,,,0.00,tws,2013-11-01 21:15:00,
2013-11-01 17:20:00,72.3,43.8,29.43,North,-999,-999.0,-999.0,35,0.00,,,0.00,tws,2013-11-01 21:20:00,
2013-11-01 17:25:00,72.0,48.5,29.44,North,-999,-999.0,-999.0,43,0.00,,,0.00,tws,2013-11-01 21:25:00,
2013-11-01 17:30:00,70.9,53.8,29.43,North,-999,-999.0,-999.0,54,0.00,,,0.00,tws,2013-11-01 21:30:00,
2013-11-01 17:35:00,69.9,57.6,29.44,North,-999,-999.0,-999.0,64,0.00,,,0.00,tws,2013-11-01 21:35:00,
2013-11-01 17:40:00,69.0,58.0,29.44,North,-999,-999.0,-999.0,67,0.00,,,0.00,tws,2013-11-01 21:40:00,
2013-11-01 17:45:00,68.4,58.2,29.44,North,-999,-999.0,-999.0,69,0.00,,,0.00,tws,2013-11-01 21:45:00,
2013-11-01 17:50:00,67.6,58.1,29.44,North,-999,-999.0,-999.0,71,0.00,,,0.00,tws,2013-11-01 21:50:00,
2013-11-01 17:55:00,67.0,58.0,29.44,North,-999,-999.0,-999.0,72,0.00,,,0.00,tws,2013-11-01 21:55:00,
2013-11-01 18:00:00,66.6,58.0,29.45,North,-999,-999.0,-999.0,73,0.00,,,0.00,tws,2013-11-01 22:00:00,
2013-11-01 18:05:00,66.3,58.1,29.45,North,-999,-999.0,-999.0,74,0.00,,,0.00,tws,2013-11-01 22:05:00,
2013-11-01 18:10:00,66.0,58.2,29.45,North,-999,-999.0,-999.0,75,0.00,,,0.00,tws,2013-11-01 22:10:00,
2013-11-01 18:15:00,65.8,58.2,29.46,North,-999,-999.0,-999.0,76,0.00,,,0.00,tws,2013-11-01 22:15:00,
2013-11-01 18:20:00,65.6,58.2,29.46,North,-999,-999.0,-999.0,76,0.00,,,0.00,tws,2013-11-01 22:20:00,
2013-11-01 18:25:00,65.4,58.2,29.46,North,-999,-999.0,-999.0,77,0.00,,,0.00,tws,2013-11-01 22:25:00,
2013-11-01 18:30:00,65.1,58.1,29.46,North,-999,-999.0,-999.0,77,0.00,,,0.00,tws,2013-11-01 22:30:00,
2013-11-01 18:35:00,64.8,58.2,29.46,North,-999,-999.0,-999.0,78,0.00,,,0.00,tws,2013-11-01 22:35:00,
2013-11-01 18:40:00,64.4,58.1,29.46,North,-999,-999.0,-999.0,79,0.00,,,0.00,tws,2013-11-01 22:40:00,
2013-11-01 18:45:00,64.1,58.0,29.46,North,-999,-999.0,-999.0,80,0.00,,,0.00,tws,2013-11-01 22:45:00,
2013-11-01 18:50:00,63.8,57.9,29.46,North,-999,-999.0,-999.0,80,0.00,,,0.00,tws,2013-11-01 22:50:00,
2013-11-01 18:55:00,63.6,57.9,29.46,North,-999,-999.0,-999.0,81,0.00,,,0.00,tws,2013-11-01 22:55:00,
2013-11-01 19:00:00,63.5,57.8,29.47,North,-999,-999.0,-999.0,81,0.00,,,0.00,tws,2013-11-01 23:00:00,
2013-11-01 19:05:00,63.3,57.8,29.47,North,-999,-999.0,-999.0,81,0.00,,,0.00,tws,2013-11-01 23:05:00,
2013-11-01 19:10:00,63.2,58.0,29.47,North,-999,-999.0,-999.0,82,0.00,,,0.00,tws,2013-11-01 23:10:00,
2013-11-01 19:15:00,63.1,58.0,29.47,North,-999,-999.0,-999.0,83,0.00,,,0.00,tws,2013-11-01 23:15:00,
2013-11-01 19:20:00,62.9,57.9,29.47,North,-999,-999.0,-999.0,83,0.00,,,0.00,tws,2013-11-01 23:20:00,
2013-11-01 19:25:00,62.5,57.7,29.48,North,-999,-999.0,-999.0,83,0.00,,,0.00,tws,2013-11-01 23:25:00,
2013-11-01 19:30:00,62.1,57.4,29.48,North,-999,-999.0,-999.0,84,0.00,,,0.00,tws,2013-11-01 23:30:00,
2013-11-01 19:35:00,61.7,57.5,29.48,North,-999,-999.0,-999.0,85,0.00,,,0.00,tws,2013-11-01 23:35:00,
2013-11-01 19:40:00,61.5,58.0,29.48,North,-999,-999.0,-999.0,87,0.00,,,0.00,tws,2013-11-01 23:40:00,
2013-11-01 19:45:00,61.4,58.1,29.49,North,-999,-999.0,-999.0,88,0.00,,,0.00,tws,2013-11-01 23:45:00,
2013-11-01 19:50:00,61.3,58.2,29.48,North,-999,-999.0,-999.0,89,0.00,,,0.00,tws,2013-11-01 23:50:00,
2013-11-01 19:55:00,61.2,58.4,29.49,North,-999,-999.0,-999.0,90,0.00,,,0.00,tws,2013-11-01 23:55:00,
2013-11-01 20:00:00,61.1,58.2,29.49,North,-999,-999.0,-999.0,90,0.00,,,0.00,tws,2013-11-02 00:00:00,
2013-11-01 20:05:00,60.9,58.2,29.49,North,-999,-999.0,-999.0,90,0.00,,,0.00,tws,2013-11-02 00:05:00,
2013-11-01 20:10:00,60.7,58.1,29.49,North,-999,-999.0,-999.0,90,0.00,,,0.00,tws,2013-11-02 00:10:00,
2013-11-01 20:15:00,60.6,57.8,29.50,North,-999,-999.0,-999.0,90,0.00,,,0.00,tws,2013-11-02 00:15:00,
2013-11-01 20:20:00,60.5,57.4,29.50,North,-999,-999.0,-999.0,89,0.00,,,0.00,tws,2013-11-02 00:20:00,
2013-11-01 20:25:00,60.4,57.1,29.50,North,-999,-999.0,-999.0,88,0.00,,,0.00,tws,2013-11-02 00:25:00,
2013-11-01 20:30:00,60.3,56.8,29.50,North,-999,-999.0,-999.0,88,0.00,,,0.00,tws,2013-11-02 00:30:00,
2013-11-01 20:35:00,59.9,56.3,29.50,North,-999,-999.0,-999.0,87,0.00,,,0.00,tws,2013-11-02 00:35:00,
2013-11-01 20:40:00,59.6,54.9,29.50,North,-999,-999.0,-999.0,84,0.00,,,0.00,tws,2013-11-02 00:40:00,
2013-11-01 20:45:00,59.3,52.8,29.50,North,-999,-999.0,-999.0,78,0.00,,,0.00,tws,2013-11-02 00:45:00,
2013-11-01 20:50:00,59.1,52.0,29.50,North,-999,-999.0,-999.0,77,0.00,,,0.00,tws,2013-11-02 00:50:00,
2013-11-01 20:55:00,58.9,52.0,29.50,North,-999,-999.0,-999.0,77,0.00,,,0.00,tws,2013-11-02 00:55:00,
2013-11-01 21:00:00,58.6,51.6,29.50,North,-999,-999.0,-999.0,77,0.00,,,0.00,tws,2013-11-02 01:00:00,
2013-11-01 21:05:00,58.5,50.5,29.51,North,-999,-999.0,-999.0,74,0.00,,,0.00,tws,2013-11-02 01:05:00,
2013-11-01 21:10:00,58.4,50.4,29.51,North,-999,-999.0,-999.0,74,0.00,,,0.00,tws,2013-11-02 01:10:00,
2013-11-01 21:15:00,58.3,50.5,29.52,North,-999,-999.0,-999.0,75,0.00,,,0.00,tws,2013-11-02 01:15:00,
2013-11-01 21:20:00,58.0,50.4,29.52,North,-999,-999.0,-999.0,75,0.00,,,0.00,tws,2013-11-02 01:20:00,
2013-11-01 21:25:00,57.7,50.5,29.52,North,-999,-999.0,-999.0,76,0.00,,,0.00,tws,2013-11-02 01:25:00,
2013-11-01 21:30:00,57.4,50.0,29.52,North,-999,-999.0,-999.0,76,0.00,,,0.00,tws,2013-11-02 01:30:00,
2013-11-01 21:35:00,57.0,50.0,29.52,North,-999,-999.0,-999.0,77,0.00,,,0.00,tws,2013-11-02 01:35:00,
2013-11-01 21:45:00,56.5,49.7,29.52,North,-999,-999.0,-999.0,77,0.00,,,0.00,tws,2013-11-02 01:45:00,
2013-11-01 21:50:00,56.1,49.5,29.52,North,-999,-999.0,-999.0,78,0.00,,,0.00,tws,2013-11-02 01:50:00,
2013-11-01 21:55:00,55.8,49.3,29.52,North,-999,-999.0,-999.0,78,0.00,,,0.00,tws,2013-11-02 01:55:00,
2013-11-01 22:00:00,55.6,49.1,29.52,North,-999,-999.0,-999.0,78,0.00,,,0.00,tws,2013-11-02 02:00:00,
2013-11-01 22:05:00,55.4,49.2,29.52,North,-999,-999.0,-999.0,79,0.00,,,0.00,tws,2013-11-02 02:05:00,
2013-11-01 22:10:00,55.1,49.3,29.52,North,-999,-999.0,-999.0,80,0.00,,,0.00,tws,2013-11-02 02:10:00,
2013-11-01 22:15:00,54.9,49.2,29.53,North,-999,-999.0,-999.0,80,0.00,,,0.00,tws,2013-11-02 02:15:00,
2013-11-01 22:20:00,54.7,49.1,29.53,North,-999,-999.0,-999.0,81,0.00,,,0.00,tws,2013-11-02 02:20:00,
2013-11-01 22:25:00,54.6,49.0,29.53,North,-999,-999.0,-999.0,81,0.00,,,0.00,tws,2013-11-02 02:25:00,
2013-11-01 22:30:00,54.5,48.9,29.53,North,-999,-999.0,-999.0,81,0.00,,,0.00,tws,2013-11-02 02:30:00,
2013-11-01 22:35:00,54.5,48.4,29.53,North,-999,-999.0,-999.0,79,0.00,,,0.00,tws,2013-11-02 02:35:00,
2013-11-01 22:40:00,54.5,47.9,29.53,North,-999,-999.0,-999.0,78,0.00,,,0.00,tws,2013-11-02 02:40:00,
2013-11-01 22:45:00,54.6,47.3,29.53,North,-999,-999.0,-999.0,76,0.00,,,0.00,tws,2013-11-02 02:45:00,
2013-11-01 22:50:00,55.0,46.6,29.53,North,-999,-999.0,-999.0,73,0.00,,,0.00,tws,2013-11-02 02:50:00,
2013-11-01 22:55:00,55.6,46.6,29.53,North,-999,-999.0,-999.0,71,0.00,,,0.00,tws,2013-11-02 02:55:00,
2013-11-01 23:00:00,56.1,46.8,29.53,North,-999,-999.0,-999.0,70,0.00,,,0.00,tws,2013-11-02 03:00:00,
2013-11-01 23:05:00,56.2,46.8,29.53,North,-999,-999.0,-999.0,70,0.00,,,0.00,tws,2013-11-02 03:05:00,
2013-11-01 23:10:00,56.2,46.8,29.53,North,-999,-999.0,-999.0,70,0.00,,,0.00,tws,2013-11-02 03:10:00,
2013-11-01 23:15:00,56.3,46.6,29.53,North,-999,-999.0,-999.0,69,0.00,,,0.00,tws,2013-11-02 03:15:00,
2013-11-01 23:20:00,56.6,46.9,29.53,North,-999,-999.0,-999.0,69,0.00,,,0.00,tws,2013-11-02 03:20:00,
2013-11-01 23:30:00,56.6,47.1,29.53,North,-999,-999.0,-999.0,70,0.00,,,0.00,tws,2013-11-02 03:30:00,
2013-11-01 23:35:00,56.5,46.9,29.54,North,-999,-999.0,-999.0,69,0.00,,,0.00,tws,2013-11-02 03:35:00,
2013-11-01 23:40:00,56.4,47.0,29.54,North,-999,-999.0,-999.0,70,0.00,,,0.00,tws,2013-11-02 03:40:00,
2013-11-01 23:45:00,56.2,46.9,29.54,North,-999,-999.0,-999.0,70,0.00,,,0.00,tws,2013-11-02 03:45:00,
2013-11-01 23:50:00,56.1,46.8,29.54,North,-999,-999.0,-999.0,70,0.00,,,0.00,tws,2013-11-02 03:50:00,
2013-11-01 23:55:00,55.9,46.9,29.54,North,-999,-999.0,-999.0,71,0.00,,,0.00,tws,2013-11-02 03:55:00,